This is the latest recevied weather packets stored in our database for station/object NorthRyde. If no packets are shown the sender has not sent any weather packets the latest 10 day(s).
| Time | Temp. | Humidity | Pressure | Rain* | Wind** | Luminosity | Snow |
|---|---|---|---|---|---|---|---|
| 1777341628 | 23.89° C | 54% | 1027 hPa | 0 mm | - | 638 W/m² | - |
| 1777341569 | 23.89° C | 55% | 1027.1 hPa | 0 mm | - | 636 W/m² | - |
| 1777341507 | 23.89° C | 53% | 1026.9 hPa | 0 mm | - | 622 W/m² | - |
| 1777341442 | 23.89° C | 53% | 1027 hPa | 0 mm | - | 613 W/m² | - |
| 1777341378 | 23.89° C | 52% | 1027.2 hPa | 0 mm | - | 612 W/m² | - |
| 1777341309 | 23.89° C | 54% | 1027.2 hPa | 0 mm | - | 603 W/m² | - |
| 1777341253 | 23.89° C | 54% | 1027.1 hPa | 0 mm | - | 622 W/m² | - |
| 1777341195 | 23.89° C | 55% | 1027.2 hPa | 0 mm | - | 622 W/m² | - |
| 1777341132 | 23.89° C | 56% | 1027.2 hPa | 0 mm | - | 636 W/m² | - |
| 1777341077 | 23.89° C | 56% | 1027.2 hPa | 0 mm | - | 638 W/m² | - |
| 1777341010 | 23.33° C | 56% | 1027.3 hPa | 0 mm | - | 643 W/m² | - |
| 1777340949 | 23.33° C | 56% | 1027.1 hPa | 0 mm | - | 645 W/m² | - |
| 1777340893 | 23.33° C | 56% | 1027.1 hPa | 0 mm | - | 631 W/m² | - |
| 1777340829 | 23.33° C | 57% | 1027.1 hPa | 0 mm | - | 622 W/m² | - |
| 1777340778 | 23.33° C | 58% | 1027.2 hPa | 0 mm | - | 619 W/m² | - |
| 1777340709 | 23.33° C | 57% | 1027.2 hPa | 0 mm | - | 626 W/m² | - |
| 1777340652 | 23.33° C | 56% | 1027.3 hPa | 0 mm | - | 628 W/m² | - |
| 1777340591 | 23.33° C | 56% | 1027.3 hPa | 0 mm | - | 631 W/m² | - |
| 1777340531 | 23.33° C | 57% | 1027.3 hPa | 0 mm | - | 629 W/m² | - |
| 1777340478 | 23.33° C | 56% | 1027.2 hPa | 0 mm | - | 626 W/m² | - |
| 1777340438 | 23.33° C | 58% | 1027.3 hPa | 0 mm | - | 628 W/m² | - |
| 1777340350 | 23.33° C | 56% | 1027.3 hPa | 0 mm | - | 629 W/m² | - |
| 1777340289 | 23.33° C | 56% | 1027.3 hPa | 0 mm | - | 629 W/m² | - |
| 1777340229 | 23.33° C | 56% | 1027.3 hPa | 0 mm | - | 635 W/m² | - |
| 1777340178 | 23.33° C | 57% | 1027.4 hPa | 0 mm | - | 635 W/m² | - |
* Rain latest hour (hover to see other rain measurements)
** Current wind speed in m/s (hover to see current wind gust speed)